Location: Waco, TX
(31.5480°N, 97.1670°W)
Time: 22:57:55
(UTC-05:00)

ISS - Pass Details

Date: 21 April 2018
Orbit: 403 x 406 km, 51.6° (Epoch: 23 April)

Event Time Altitude Azimuth Distance (km) Brightness Sun altitude
Rises 16:23:30 0° 329° (NNW) 2,323 0.2 45.1°
Reaches altitude 10° 16:26:00 10° 349° (NNW) 1,462 -0.9 44.6°
Maximum altitude 16:28:25 19° 36° (NE) 1,044 -1.9 44.1°
Drops below altitude 10° 16:30:50 10° 84° (E) 1,459 -1.3 43.6°
Sets 16:33:19 0° 103° (ESE) 2,316 -0.4 43.1°
